Tacoma, WA
on Tuesday, November 20, 2012

Tuesday
Previous Day Next Day
Daily Summary
 ActualAverage (KSEA)Record (KSEA)
Temperature
Mean Temperature °F 44°F  
Max Temperature 52°F 50°F 64°F (1987)
Min Temperature 35°F 39°F 25°F (1985)
Degree Days
Heating Degree Days 22 21  
Month to date heating degree days 369  
Since 1 July heating degree days 966  
Cooling Degree Days 0 0  
Month to date cooling degree days 0  
Year to date cooling degree days 189  
Moisture
Dew Point 42°F   
Average Humidity 94    
Maximum Humidity 100    
Minimum Humidity 78    
Precipitation
Precipitation 0.11 in 0.23 in 3.41 in (1959)
Month to date precipitation 4.35  
Year to date precipitation 29.92  
Snow
Snow 0.00 in in 5.20 in (1960)
Month to date snowfall  
Since 1 July snowfall  
Snow Depth in   
Wind
Wind Speed 4 mph   
Max Wind Speed 20 mph   
Max Gust Speed 29 mph   
Visibility 6 miles   
Events Fog , Rain   

Key: T is trace of precipitation, MM is missing value
Source: NWS Daily Summary
Time(PST)TemperatureDew PointHumidity Pressure Visibility Wind DirectionWind SpeedGust SpeedPrecipitationEvents Conditions
12:58 AM 43.3°F 43.2°F 99% 29.70 in 10.0 miles SE 3.5 mph - N/A   Overcast
1:23 AM 42.8°F 42.8°F 100% 29.70 in 1.2 miles SSE 2.3 mph - N/A   Overcast
1:28 AM 42.8°F 42.8°F 100% 29.69 in 1.0 miles SE 3.5 mph - N/A   Overcast
1:38 AM 42.8°F 42.8°F 100% 29.69 in 1.8 miles SSE 4.6 mph - N/A   Overcast
1:43 AM 42.8°F 42.8°F 100% 29.69 in 3.0 miles SE 3.5 mph - N/A   Overcast
1:58 AM 43.5°F 43.2°F 99% 29.69 in 8.0 miles South 3.5 mph - N/A   Overcast
2:20 AM 44.6°F 42.8°F 93% 29.69 in 10.0 miles SW 1.2 mph - N/A Rain Light Rain
2:39 AM 44.6°F 44.6°F 100% 29.69 in 10.0 miles SE 3.5 mph - N/A   Mostly Cloudy
2:58 AM 44.4°F 44.2°F 99% 29.68 in 10.0 miles NW 2.3 mph - 0.00 in   Mostly Cloudy
3:40 AM 44.6°F 44.6°F 100% 29.68 in 10.0 miles Calm Calm - N/A Rain Light Rain
3:52 AM 42.8°F 42.8°F 100% 29.67 in 10.0 miles Calm Calm - N/A   Mostly Cloudy
3:58 AM 43.3°F 43.2°F 99% 29.67 in 10.0 miles East 1.2 mph - 0.01 in   Scattered Clouds
4:58 AM 41.0°F 41.0°F 100% 29.65 in 1.8 miles East 2.3 mph - N/A   Clear
5:03 AM 41.0°F 41.0°F 100% 29.65 in 1.2 miles East 3.5 mph - N/A   Clear
5:08 AM 41.0°F 41.0°F 100% 29.65 in 1.5 miles East 2.3 mph - N/A   Clear
5:13 AM 41.0°F 41.0°F 100% 29.65 in 4.0 miles East 2.3 mph - N/A   Clear
5:53 AM 41.0°F 41.0°F 100% 29.65 in 1.8 miles SE 2.3 mph - N/A   Mostly Cloudy
5:58 AM 39.7°F 39.6°F 99% 29.67 in 0.8 miles SE 3.5 mph - N/A   Mostly Cloudy
6:03 AM 39.2°F 39.2°F 100% 29.65 in 0.8 miles ESE 2.3 mph - N/A   Scattered Clouds
6:08 AM 39.2°F 39.2°F 100% 29.65 in 1.0 miles ESE 2.3 mph - N/A   Partly Cloudy
6:13 AM 41.0°F 41.0°F 100% 29.65 in 1.8 miles Calm Calm - N/A   Partly Cloudy
6:18 AM 41.0°F 41.0°F 100% 29.65 in 3.0 miles SSE 1.2 mph - N/A   Clear
6:23 AM 42.8°F 42.8°F 100% 29.64 in 1.5 miles SSW 1.2 mph - N/A   Partly Cloudy
6:28 AM 41.0°F 41.0°F 100% 29.64 in 1.0 miles Calm Calm - N/A   Partly Cloudy
6:33 AM 41.0°F 41.0°F 100% 29.64 in 0.8 miles SE 1.2 mph - N/A   Partly Cloudy
6:38 AM 39.2°F 39.2°F 100% 29.64 in 0.5 miles Calm Calm - N/A Fog Fog
6:43 AM 37.4°F 37.4°F 100% 29.63 in 0.5 miles Calm Calm - N/A Fog Fog
6:53 AM 39.2°F 39.2°F 100% 29.63 in 0.5 miles Calm Calm - N/A Fog Fog
6:58 AM 39.2°F 39.2°F 100% 29.65 in 0.2 miles Calm Calm - N/A Fog Fog
7:03 AM 37.4°F 37.4°F 100% 29.63 in 0.5 miles Calm Calm - N/A Fog Fog
7:08 AM 37.4°F 35.6°F 93% 29.63 in 0.5 miles Calm Calm - N/A Fog Fog
7:13 AM 37.4°F 37.4°F 100% 29.62 in 0.2 miles Variable 1.2 mph - N/A Fog Fog
7:33 AM 37.4°F 37.4°F 100% 29.60 in 0.2 miles NE 2.3 mph - N/A Fog Fog
7:38 AM 39.2°F 39.2°F 100% 29.60 in 0.5 miles East 2.3 mph - N/A Fog Fog
7:43 AM 37.4°F 37.4°F 100% 29.60 in 0.8 miles East 2.3 mph - N/A   Partly Cloudy
7:48 AM 37.4°F 37.4°F 100% 29.60 in 0.5 miles Calm Calm - N/A Fog Fog
7:58 AM 35.6°F 35.6°F 100% 29.61 in 0.5 miles ESE 1.2 mph - N/A Fog Fog
8:13 AM 37.4°F 37.4°F 100% 29.59 in 0.5 miles South 3.5 mph - N/A Fog Fog
8:18 AM 37.4°F 37.4°F 100% 29.58 in 1.5 miles North - - N/A   Mostly Cloudy
8:23 AM 37.4°F 37.4°F 100% 29.57 in 3.0 miles ENE 2.3 mph - N/A   Mostly Cloudy
8:28 AM 37.4°F 37.4°F 100% 29.57 in 2.5 miles East 3.5 mph - N/A   Mostly Cloudy
8:33 AM 39.2°F 37.4°F 93% 29.58 in 4.0 miles ESE 4.6 mph - N/A   Mostly Cloudy
8:58 AM 42.1°F 41.7°F 99% 29.59 in 10.0 miles ESE 2.3 mph - N/A   Mostly Cloudy
9:44 AM 42.8°F 42.8°F 100% 29.54 in 10.0 miles East 4.6 mph - N/A Rain Light Rain
9:58 AM 43.7°F 43.3°F 99% 29.56 in 10.0 miles East 1.2 mph - 0.00 in Rain Light Rain
10:58 AM 45.1°F 45.0°F 99% 29.58 in 4.0 miles West 2.3 mph - 0.08 in Rain Light Rain
11:17 AM 46.4°F 46.4°F 100% 29.56 in 10.0 miles Calm Calm - N/A   Overcast
11:58 AM 47.3°F 47.1°F 99% 29.58 in 10.0 miles Calm Calm - 0.01 in   Overcast
12:53 PM 51.8°F 48.2°F 88% 29.57 in 10.0 miles South 13.8 mph - N/A Rain Light Rain
12:58 PM 52.3°F 47.3°F 83% 29.59 in 10.0 miles South 18.4 mph 28.8 mph 0.00 in Rain Light Rain
1:03 PM 51.8°F 46.4°F 82% 29.58 in 9.0 miles SSW 15.0 mph 28.8 mph N/A   Overcast
1:05 PM 51.8°F 46.4°F 82% 29.58 in 9.0 miles South 15.0 mph 28.8 mph N/A Rain Light Rain
1:06 PM 51.8°F 46.4°F 82% 29.58 in 9.0 miles South 17.3 mph 28.8 mph N/A   Mostly Cloudy
1:07 PM 51.8°F 46.4°F 82% 29.57 in 9.0 miles South 17.3 mph 23.0 mph N/A Rain Light Rain
1:17 PM 51.8°F 46.4°F 82% 29.58 in 10.0 miles South 19.6 mph 27.6 mph N/A   Mostly Cloudy
1:58 PM 51.3°F 46.4°F 83% 29.62 in 10.0 miles SSW 12.7 mph - 0.01 in   Mostly Cloudy
2:23 PM 51.8°F 46.4°F 82% 29.62 in 10.0 miles SW 5.8 mph - N/A   Overcast
2:43 PM 51.8°F 46.4°F 82% 29.63 in 10.0 miles South 15.0 mph - N/A   Overcast
2:58 PM 50.9°F 46.6°F 85% 29.66 in 10.0 miles South 13.8 mph - N/A   Mostly Cloudy
3:58 PM 50.0°F 43.5°F 78% 29.69 in 10.0 miles South 10.4 mph - N/A   Partly Cloudy
4:39 PM 48.2°F 42.8°F 82% 29.67 in 10.0 miles SSE 11.5 mph - N/A Rain Light Rain
4:51 PM 48.2°F 42.8°F 82% 29.66 in 10.0 miles SSE 8.1 mph - N/A   Scattered Clouds
4:58 PM 46.9°F 42.8°F 86% 29.68 in 10.0 miles SSE 8.1 mph - 0.00 in   Scattered Clouds
5:58 PM 46.2°F 40.6°F 81% 29.68 in 10.0 miles SSE 5.8 mph - N/A   Partly Cloudy
6:58 PM 46.9°F 41.4°F 81% 29.69 in 10.0 miles SSE 5.8 mph - N/A   Overcast
7:58 PM 44.6°F 40.3°F 85% 29.69 in 10.0 miles South 6.9 mph - N/A   Mostly Cloudy
8:58 PM 45.0°F 39.9°F 82% 29.67 in 10.0 miles ESE 5.8 mph - N/A   Clear
9:58 PM 42.8°F 40.3°F 91% 29.65 in 10.0 miles SSE 3.5 mph - N/A   Overcast
10:58 PM 41.4°F 38.1°F 88% 29.62 in 10.0 miles SSE 5.8 mph - N/A   Mostly Cloudy
11:58 PM 43.9°F 38.7°F 82% 29.58 in 10.0 miles ESE 4.6 mph - N/A   Scattered Clouds
Moon Phase
Nov. 20 Nov. 28 Dec. 06 Dec. 13 Dec. 20
Sunrise:07:21 AM (PST) Moon Rise:12:44 PM (PST)
Sunset:04:29 PM (PST) Moon Set:No Moon Set/

Copyright © 2014 The Weather Underground, Inc.